Tracking 17556 objects as of 5-February-2016
HD Live streaming from Space Station
objects crossing your sky now

THORAD AGENA D DEB

Track THORAD AGENA D DEB now!
10-day predictions


NORAD ID: 4177
Int'l Code: 1969-082AV
Perigee: 853.3 km
Apogee: 1,031.8 km
Inclination: 70.1 °
Period: 103.7 minutes
Semi major axis: 7313 km
RCS: 0.0743 m2 (small)
Launch date: September 30, 1969
Source: United States (US)
Launch site: AIR FORCE WESTERN TEST RANGE (AFWTR)

Note: This is SATELLITE DEBRIS
Your satellite tracking list
Your tracking list is empty





NASA's NSSDC Master Catalog

Two Line Element Set (TLE):
1 04177U 69082AV  16036.52112866  .00000182  00000-0  18456-3 0  9999
2 04177  70.0708 275.4832 0122009 238.1954 120.7220 13.8806757133916
Source of the keplerian elements: AFSPC

N2YO: 754